User: anonymous   Login
Location: Unspecified
(0.0000°N, 0.0000°E)
Time: 05:42:50
(UTC+00:00)
Language:

AEROCUBE 2 - Orbit

View from above orbital plane
View from above orbital plane
View from above satellite
View from above satellite

Ground track
Ground track

The orbit data is extracted from the following two-line orbital elements,

1 31133U 07012R   19083.79499784  .00000094  00000-0  29481-4 0  9990
2 31133  98.1152  31.6828 0079350 282.4730  76.7600 14.59082496634576
Epoch (UTC): 24 March 2019 19:04:47
Eccentricity: 0.0079350
inclination: 98.1152°
perigee height: 640 km
apogee height: 752 km
right ascension of ascending node: 31.6828°
argument of perigee: 282.4730°
revolutions per day: 14.59082496
mean anomaly at epoch: 76.7600°
orbit number at epoch: 63457

The dashed part of the orbit path shows where the satellite is in the earth's shadow,  

DLR